Location: Bacharowice
(49.9333°N, 19.5833°E)
Time: 02:54:31
(UTC+00:00)

USA 307 - Pass Details

Date: 11 May 2021
Orbit: 566 x 577 km, 54.0° (Epoch: 10 May)

Event Time Altitude Azimuth Distance (km) Brightness Sun altitude
Rises 19:29:22 0° 294° (WNW) 2,776 7.9 -10.3°
Reaches altitude 10° 19:31:37 10° 295° (WNW) 1,878 6.8 -10.5°
Maximum altitude 19:35:55 84° 24° (NNE) 581 2.9 -11.0°
Enters shadow 19:39:32 14° 113° (ESE) 1,617 4.6 -11.4°
